Powrót do katalogu

STARLINK-37110

AktywnyŁącznośćSSO
NORAD 68222·PAYLOAD·🇺🇸 United States

Wystrzelony Mar 17, 2026 z Vandenberg Space Force Base

Loading…

Następne Przeloty (najbliższe 24 godziny)

TLE

ŚwieżeSource: CelesTrak SupGP

Epoka: Sep 15, 2026, 04:00 UTC

1 68222C 26053R   26258.16715278  .00004554  00000+0  14129-3 0  2581
2 68222  97.2851 132.0368 0001926  96.3654  31.4732 15.33451701    19

Śledź STARLINK-37110 w czasie rzeczywistym z AllMySat

Download on the App Store